sat.trackr.live / text

‹ back to catalog

STARLINK-30074

NORAD 57508 · 2023-113P

PAYLOAD ACTIVE UNKNOWN

§ Identity

Operator
Country
US
Launch date
2023-08-07
Launch site
AFETR
Launch vehicle
Mass (kg)
RCS (m²)

Purposes: comms

External: N2YO · Heavens-Above · Gunter

§ Orbital elements

Epoch: 2026-09-19T07:12:14.775264Z

Period
94.27 min
Inclination
43.0035°
Eccentricity
0.0001490
Mean motion
15.27578347 rev/d
Perigee alt
482.0 km
Apogee alt
484.1 km
Semi-major
6,861.2 km
B*
2.2711e-5
RAAN
2.8059°
Arg perigee
266.2656°
Mean anomaly
93.8026°
Rev number
17,307

§ Raw data

STARLINK-300741 57508U 23113P   26262.30017101  .00000363  00000+0  22711-4 0  99942 57508  43.0035   2.8059 0001490 266.2656  93.8026 15.27578347173078

JSON: /api/v1/satellites/57508 · /tle

For live sub-satellite position, see the globe view (requires WebGL).

§ Visibility from observer

Set your observer location to see the next 7 days of passes ≥ 10°. The values pass through the URL so the page stays shareable.

No JS? Fill the form by hand. The geolocation button needs JavaScript.